BLOCK DM-SL R/B, 44904

Orbit data source: Space-Track

BLOCK DM-SL R/B, 44904 is space debris originally from a launch on Tue, 24 Dec 2019 UTC launched from the Tyuratam Missile And Space Complex (TTMTR). Debris objects in space refer to the collection of defunct objects orbiting the Earth. Examples of debris include non-operational satellites, rocket bodies, and fragments generated from explosions, collisions, or faulty payload assembly.

Not visible in the next 10 days
BLOCK DM-SL R/B details
Identifier
44904, 2019-095B
Orbit
Active
Last TLE update1 day ago
Origin
Flag of CISVVKO VKS (CIS)
ManufacturerRKKE
MissionSpacecraft
Bus & MotorBLOK DM2, 11D58M
Mass2,440 kg wet, 2,440 kg dry
Launch date (UTC)
2019-12-24 (5 years ago)
Launch vehicleUnknown
Launch site
Tyuratam Missile And Space Complex (TTMTR)
Object type
Payload
Rocket body
Debris
Shape & HBRCyl, 7.1 m
Radar Cross Section26.008 m², Large (>1 m²)

Expand to show TLE details & history

TLE from 1 day ago
0 BLOCK DM-SL R/B
1 44904U 19095B   24347.74579225 -.00000162  00000-0  00000-0 0  9996
2 44904   3.9599  80.7155 0070671 255.8270 103.0473  1.02972632 18711
Epoch: 2024-12-12T17:53Z
Definitive object data (Epoch: 2024-12-12T17:53:56.45Z)
Latitude-0.00001°
Longitude89.9582°
Altitude35,113.666 km
Speed3.097 km/s
True Right ascension05h 21m 27s
True Declination0° 00' 00"
Sunlit
Object was in daylight at TLE epoch
Visualization TLE readout
Latitude0.53148°
Longitude-97.78014°
Altitude35,012.294 km
Speed3.105 km/s
Apparent Right ascension16h 39m 10s
Apparent Declination-4° 36' 14"
Sunlit
Object is in daylight
Visualization observer readout
Local Sidereal Time03:00:25
Azimuth321.297° NNW
Elevation-48.258°
Doppler factor1
Orbital elements
Apogee altitude35,339.885 km
Perigee altitude34,754.372 km
Semi-major axis41,425.265 km
Eccentricity0.0070671
Inclination3.9599°
RAAN80.7155°
Arg. of periapsis255.827°
True anomaly103.83463°
Mean anomaly103.0473°
Eccentric anomaly103.44112°
Mean motion0.25742 °/min
BSTARUnknown
Orbital period1398.48 mins
Loading maneuver chart data...
Loading historical data...
Loading historical data...
Loading historical data...
Loading historical data...
Loading historical data...
Loading historical data...
Loading historical data...

BLOCK DM-SL R/B Visibility forecast

Observer location: undefined°, undefined

BLOCK DM-SL R/B is not visible in the next 10 days
Span
Click to sort rows by Start time (UTC) header in descending order
Start Az.
Max El. time (UTC)
Max El. Az.
Max El.
End time (UTC)
End Az.
|